Creek Data

    Home     View Charts     View Raw Data     Messages

ID Distance Battery Voltage Battery Current Internal Temp Internal Humidity External Temp Solar Input rssi snr Time Stamp Record
66123 15.1 3.82 -5 43 51 44 0 -71 9 02/13/2026 01:45 AM 48929
66122 15.1 3.82 -5 44 50 46 0 -71 8 02/13/2026 01:30 AM 48928
66121 15.1 3.83 -5 45 50 46 0 -72 7 02/13/2026 01:15 AM 48927
66120 15.1 3.97 -5 45 50 47 0 -72 8 02/13/2026 01:00 AM 48926
66119 15.1 3.87 -5 45 50 46 0 -71 8 02/13/2026 12:45 AM 48925
66118 15.1 3.86 -5 45 50 47 0 -72 8 02/13/2026 12:30 AM 48924
66117 15.1 3.87 -5 45 50 47 0 -73 8 02/13/2026 12:15 AM 48923
66116 15.1 3.87 -5 44 51 46 0 -72 8 02/13/2026 12:00 AM 48922
66115 15.1 3.97 -5 44 51 46 0 -72 7 02/12/2026 11:45 PM 48921
66114 15.1 3.87 -5 44 51 46 0 -71 8 02/12/2026 11:30 PM 48920
66113 15.1 3.87 -5 45 50 47 0 -72 8 02/12/2026 11:15 PM 48919
66112 15.1 3.97 -5 46 50 48 0 -72 8 02/12/2026 11:00 PM 48918
66111 15.1 3.87 -5 46 50 48 0 -72 8 02/12/2026 10:45 PM 48917
66110 15.1 3.87 -5 46 50 48 0 -73 8 02/12/2026 10:30 PM 48916
66109 15.1 3.98 -5 46 51 48 0 -72 7 02/12/2026 10:15 PM 48915
66108 15.1 3.91 -5 47 50 49 0 -73 8 02/12/2026 10:00 PM 48914
66107 15.1 3.91 -5 47 50 48 0 -73 8 02/12/2026 09:45 PM 48913
66106 15.1 3.91 -5 47 51 50 0 -72 8 02/12/2026 09:30 PM 48912
66105 15.1 3.92 -5 47 51 50 0 -73 8 02/12/2026 09:15 PM 48911
66104 15.1 3.98 -5 47 51 48 0.1 -71 8 02/12/2026 09:00 PM 48910
66103 15.1 3.92 -5 48 51 51 0 -72 8 02/12/2026 08:45 PM 48909
66102 15.1 3.92 -5 48 51 52 0 -71 8 02/12/2026 08:30 PM 48908
66101 15.1 3.99 -5 48 52 49 0 -71 8 02/12/2026 08:15 PM 48907
66100 15.1 3.99 -5 48 52 51 0 -71 8 02/12/2026 08:00 PM 48906
66099 15.1 3.92 -5 49 52 51 0 -72 6 02/12/2026 07:45 PM 48905